Weather History for Shreveport, LA

Change the Weather History Date:

Sunday, June 22, 2014

  Actual Average Record
Temperature  
Mean Temperature 82 °F 81 °F  
Max Temperature 89 °F 91 °F 104 °F (1875)
Min Temperature 75 °F 71 °F 60 °F (1902)
Degree Days  
Heating Degree Days 0 0  
Month to date heating degree days 0 0  
Since 1 June heating degree days 0 0  
Since 1 July heating degree days 2567 2226  
Cooling Degree Days 17 16  
Month to date cooling degree days 347 312  
Year to date cooling degree days 717 710  
Since 1 June cooling degree days 347 312  
Growing Degree Days 32 (Base 50)    
Moisture  
Dew Point 72 °F    
Average Humidity 71    
Maximum Humidity 87    
Minimum Humidity 55    
Precipitation  
Precipitation T in 0.19 in 1.54 in (1999)
Month to date precipitation 1.20 4.04  
Year to date precipitation 19.27 26.25  
Snow  
Snow 0.00 in - - ()
Month to date snowfall 0.0  
Since 1 June snowfall 0.0  
Since 1 July snowfall 1.0  
Snow Depth 0.00 in    
Sea Level Pressure  
Sea Level Pressure 29.92 in    
Wind  
Wind Speed 5 mph (SW)    
Max Wind Speed 17 mph    
Max Gust Speed 20 mph    
Visibility 10 miles    
Events      
T = Trace of Precipitation, MM = Missing Value Source: NWS Daily Summary

Daily Weather History Graph

Daily Weather History Graph

Search for Another Location

Airport:

Trip Planner

Search our weather history database for the weather conditions in past years. The results will help you decide how hot, cold, wet, or windy it might be!

Date:

Astronomy

Jun. 22, 2014 Rise Set
Actual Time 6:08 AM CDT 8:25 PM CDT
Civil Twilight 5:40 AM CDT 8:54 PM CDT
Nautical Twilight 5:05 AM CDT 9:29 PM CDT
Astronomical Twilight 4:27 AM CDT 10:07 PM CDT
Moon 2:45 AM CDT (6/22) 4:17 PM CDT (6/22)
Length of Visible Light 15h 14m
Length of Day
14h 17m
Waning Crescent, 20% of the Moon is Illuminated
Jun 22
Waning Crescent
Jun 27
New
Jul 5
First Quarter
Jul 12
Full
Jul 18
Last Quarter

Hourly Weather History & Observations

Time (CDT) Temp. Heat Index Dew Point Humidity Pressure Visibility Wind Dir Wind Speed Gust Speed Precip Events Conditions
12:56 AM 77.0 °F - 72.0 °F 84% 29.94 in 10.0 mi WSW 3.5 mph - N/A   Mostly Cloudy
1:56 AM 77.0 °F - 71.1 °F 82% 29.93 in 10.0 mi Calm Calm - N/A   Overcast
2:56 AM 75.9 °F - 72.0 °F 87% 29.92 in 10.0 mi Calm Calm - N/A   Overcast
3:56 AM 77.0 °F - 71.1 °F 82% 29.91 in 10.0 mi Calm Calm - N/A   Overcast
4:56 AM 77.0 °F - 71.1 °F 82% 29.92 in 10.0 mi SSW 4.6 mph - N/A   Overcast
5:56 AM 75.9 °F - 71.1 °F 85% 29.94 in 10.0 mi SW 4.6 mph - N/A   Overcast
6:56 AM 77.0 °F - 72.0 °F 84% 29.94 in 10.0 mi SW 5.8 mph - N/A   Overcast
7:56 AM 79.0 °F - 73.0 °F 82% 29.95 in 10.0 mi SW 6.9 mph - N/A   Overcast
8:56 AM 82.0 °F 87.4 °F 73.0 °F 74% 29.97 in 10.0 mi SW 6.9 mph - N/A   Overcast
9:56 AM 84.0 °F 89.6 °F 72.0 °F 67% 29.97 in 10.0 mi SW 9.2 mph - N/A   Mostly Cloudy
10:56 AM 86.0 °F 91.5 °F 71.1 °F 61% 29.97 in 9.0 mi SW 9.2 mph - N/A   Mostly Cloudy
11:56 AM 88.0 °F 92.9 °F 70.0 °F 55% 29.96 in 10.0 mi SW 10.4 mph - N/A   Mostly Cloudy
12:56 PM 88.0 °F 92.9 °F 70.0 °F 55% 29.95 in 10.0 mi WSW 10.4 mph - N/A   Mostly Cloudy
1:56 PM 82.9 °F 87.5 °F 71.1 °F 67% 29.94 in 10.0 mi WSW 8.1 mph - 0.00 in   Overcast
2:56 PM 84.9 °F 90.1 °F 71.1 °F 63% 29.91 in 9.0 mi SW 9.2 mph - 0.00 in   Overcast
3:56 PM 84.9 °F 90.7 °F 72.0 °F 65% 29.90 in 9.0 mi SW 6.9 mph - N/A   Overcast
4:56 PM 84.9 °F 90.7 °F 72.0 °F 65% 29.89 in 9.0 mi WSW 3.5 mph - N/A   Overcast
5:56 PM 84.0 °F 90.2 °F 73.0 °F 69% 29.88 in 9.0 mi Calm Calm - N/A   Overcast
6:56 PM 82.9 °F 88.8 °F 73.0 °F 72% 29.88 in 9.0 mi Calm Calm - N/A   Overcast
7:56 PM 81.0 °F 85.8 °F 73.0 °F 77% 29.88 in 9.0 mi SSE 5.8 mph - N/A   Overcast
8:56 PM 81.0 °F 85.8 °F 73.0 °F 77% 29.89 in 10.0 mi Calm Calm - N/A   Overcast
9:56 PM 79.0 °F - 73.9 °F 84% 29.89 in 10.0 mi South 3.5 mph - N/A   Overcast
10:56 PM 79.0 °F - 72.0 °F 79% 29.90 in 10.0 mi South 8.1 mph - N/A   Overcast
11:56 PM 77.0 °F - 70.0 °F 79% 29.88 in 10.0 mi South 5.8 mph - N/A   Overcast